Theta_e
323 316 315 320 319 318 319 306 303 296 294 289 287 290 295 295 295 294 294 294 296 297 296 297 297 298 299 299 299 298 296 297 298 297 298 305 314 310 311 311 309 308 308 310 314 320 326 333 336 336 336 336 337 338 338 339 339 340 341 343 344 345 345 347 346 347 347 347 347 346 346 348 348 348 348 349 349 349 348 347 347 347 347 347 346 349 350 350 349 349 349 349 348 351 349 347 346
316 316 319 319 318 318 314 298 293 290 288 288 290 288 293 292 294 294 295 294 296 298 299 300 301 301 301 301 301 301 301 300 300 302 303 311 309 312 311 309 308 306 307 309 312 318 325 330 332 333 333 334 334 334 335 335 336 337 338 339 340 341 343 344 345 345 345 346 347 347 347 347 347 347 348 348 348 348 348 347 347 346 347 347 347 348 348 349 349 349 348 348 348 350 351 351 349
318 318 317 317 316 311 305 300 299 285 289 289 289 290 292 293 293 294 293 294 297 299 297 297 297 296 296 297 297 299 299 303 302 304 302 307 306 303 310 309 308 306 305 308 311 317 323 326 329 330 331 331 331 332 332 333 334 334 335 336 337 338 340 340 340 341 341 342 343 344 345 345 346 346 347 347 347 347 346 346 346 346 347 347 347 348 347 349 348 347 348 348 348 349 350 350 349
317 317 317 315 314 303 302 292 290 289 292 286 287 291 290 293 293 294 293 295 299 297 294 298 299 297 298 296 297 299 298 300 303 304 301 303 304 307 307 307 307 302 304 306 308 314 322 323 326 328 328 329 330 330 331 331 331 332 333 333 334 336 336 336 337 339 340 341 341 342 343 344 344 345 345 346 346 346 346 346 345 345 345 346 345 346 347 347 347 347 347 347 347 347 348 350 350
317 316 314 310 307 304 294 289 288 288 290 286 290 292 292 291 294 293 295 296 296 293 292 296 296 298 298 298 297 299 300 300 301 304 303 305 306 306 306 307 303 301 302 303 306 312 319 322 323 326 327 328 329 329 330 330 330 330 331 332 332 333 333 332 334 336 338 338 337 338 338 339 342 343 343 344 344 344 344 344 345 344 344 345 345 345 346 347 346 346 346 346 347 346 347 348 349
310 311 308 310 309 302 295 293 292 291 290 288 288 292 291 293 294 294 295 295 294 294 294 293 296 296 296 296 297 298 300 299 302 302 303 302 306 306 305 307 300 300 301 302 304 309 318 320 322 324 326 327 328 328 328 328 329 329 330 330 330 330 329 330 331 333 333 333 333 333 335 337 337 338 339 339 340 341 341 341 342 343 343 343 344 345 346 346 346 346 345 346 346 345 346 346 347
314 310 305 306 300 298 293 287 289 287 294 290 294 292 294 292 294 294 293 295 295 296 294 297 294 296 295 296 297 299 299 301 301 303 304 305 305 305 305 301 300 299 300 301 303 307 316 318 320 322 323 324 325 325 326 326 327 327 327 328 328 327 327 327 329 330 329 329 329 329 331 332 332 332 332 331 333 333 332 333 336 339 341 342 343 344 346 346 346 346 346 346 345 345 344 345 345
311 312 304 299 293 291 289 286 289 288 295 290 292 292 291 293 292 294 294 295 295 296 295 295 295 295 295 296 297 298 298 301 303 303 302 301 303 302 303 299 299 299 299 300 302 305 312 315 317 319 321 322 323 323 324 324 325 325 325 325 325 325 325 326 327 327 326 325 325 326 327 327 327 327 327 327 328 327 328 329 331 332 335 340 341 341 343 345 346 345 345 345 345 344 344 343 344
305 304 298 298 292 287 286 291 290 288 289 289 291 292 299 293 293 294 293 293 293 293 294 295 293 295 293 294 295 298 297 299 299 304 300 301 301 301 300 299 298 299 299 299 301 303 307 312 314 316 318 319 320 321 322 322 322 322 323 323 322 322 322 323 324 324 323 322 321 322 323 323 323 324 324 324 324 324 324 326 327 329 332 335 336 336 337 339 342 345 345 344 344 343 343 343 344
302 304 299 295 289 293 284 288 290 291 291 292 292 293 291 290 291 292 294 292 294 293 295 294 293 294 294 294 293 297 298 298 299 299 299 299 299 299 299 299 299 299 298 299 300 301 304 308 310 311 314 316 317 318 319 319 320 320 320 320 320 319 319 320 321 322 321 319 319 319 320 320 320 320 321 321 321 321 321 323 325 327 329 330 330 330 330 331 334 337 340 342 342 342 342 342 343
301 296 295 295 287 286 290 289 286 288 291 290 290 291 291 291 292 290 292 294 293 295 294 292 296 292 294 293 294 299 294 296 297 297 298 298 298 298 297 298 299 298 298 299 300 300 300 302 306 308 309 312 314 315 316 316 317 317 318 318 318 318 317 317 318 318 318 317 316 317 317 318 318 318 318 318 318 318 319 321 322 324 325 325 325 326 326 328 330 333 334 334 336 339 341 341 341
299 295 294 286 287 289 286 288 288 290 289 289 295 293 291 292 292 292 291 294 293 292 294 294 295 294 293 290 295 295 294 295 298 298 297 297 295 296 296 296 298 298 299 298 299 299 300 300 301 304 306 306 309 311 312 313 314 315 315 315 315 315 315 315 315 316 316 315 314 314 314 315 315 315 316 316 316 316 317 319 320 321 321 322 322 323 323 325 327 329 329 329 329 331 335 337 338
297 292 290 291 289 288 288 289 289 293 289 291 293 293 290 292 293 294 292 293 292 292 294 294 293 296 292 291 294 292 292 296 296 296 297 293 295 294 295 295 297 298 298 298 297 298 299 298 299 300 302 302 303 306 309 309 310 311 312 312 312 312 312 312 312 312 313 312 311 311 311 311 311 312 313 314 313 314 315 316 317 318 319 319 320 320 321 323 325 325 325 325 325 326 326 328 332
295 293 291 295 285 285 287 288 286 291 290 290 292 291 291 292 292 291 292 293 291 293 294 292 295 293 293 291 293 293 293 296 295 296 294 294 294 293 295 294 296 296 297 296 296 296 298 298 298 299 299 299 299 300 303 307 307 309 309 309 309 310 310 309 309 309 310 309 308 307 307 307 307 308 309 310 310 311 311 313 314 316 317 316 317 317 318 319 321 322 322 322 323 322 322 321 324
300 292 289 286 286 288 285 291 290 287 291 291 293 291 291 292 290 290 294 294 293 293 292 294 296 295 294 293 293 293 294 295 294 294 294 293 293 293 294 294 295 296 296 295 295 295 295 297 297 297 298 298 299 298 299 303 304 305 306 306 307 307 307 307 306 306 306 306 306 305 304 303 304 305 305 306 307 307 308 308 310 313 314 314 314 314 315 317 318 319 319 320 319 318 318 318 318
296 294 289 289 288 287 289 289 285 288 291 290 292 289 292 292 290 292 292 294 294 291 292 295 293 294 292 295 295 294 294 293 293 293 292 292 293 293 293 293 293 294 295 295 294 295 295 296 297 296 297 297 298 298 298 299 302 302 303 304 304 305 305 305 304 304 303 303 304 303 302 301 301 301 303 302 303 305 305 305 307 309 311 311 312 312 313 314 316 316 317 317 317 316 315 314 314
296 294 293 286 290 287 289 289 288 291 290 289 291 291 293 291 290 289 288 289 292 291 291 289 293 290 290 291 292 291 292 295 294 291 291 291 292 291 292 293 294 293 294 293 294 293 294 295 295 296 296 296 297 297 297 298 300 299 298 300 301 302 303 302 302 301 301 300 301 302 300 301 300 300 301 301 301 301 303 303 305 307 307 307 308 309 310 311 313 314 314 314 314 313 311 310 310
295 292 287 290 289 287 289 291 290 291 292 293 289 290 292 291 291 292 291 290 287 288 289 289 288 288 289 290 289 291 293 292 291 290 290 291 291 290 291 291 291 291 292 293 293 292 293 294 295 295 296 295 296 297 297 297 297 297 297 297 298 299 299 299 298 299 298 299 300 300 300 299 299 299 301 301 300 301 301 302 303 304 305 304 306 306 307 309 310 311 311 312 312 310 308 306 307
290 286 287 291 287 290 292 291 292 291 294 290 290 288 291 293 291 291 292 290 289 290 290 288 290 289 289 289 289 291 290 290 290 290 289 290 290 290 290 291 290 290 291 292 293 292 293 293 293 294 294 295 295 296 296 297 295 295 296 296 296 297 297 297 296 297 297 298 298 299 299 299 299 299 300 301 300 299 299 300 301 301 302 301 303 303 303 305 307 308 309 309 308 307 305 306 306
292 289 290 286 289 290 289 289 292 291 291 290 290 290 289 291 291 290 292 289 286 290 291 289 288 291 289 289 288 289 290 289 290 289 289 289 289 289 289 290 289 290 290 292 292 293 292 293 292 293 295 294 295 295 295 296 295 295 295 296 295 296 296 296 296 296 297 297 297 298 297 298 298 298 299 299 299 299 298 299 299 299 299 299 300 299 300 302 303 304 305 306 304 304 304 304 304
295 289 287 291 289 293 293 288 290 290 290 291 289 287 289 290 290 291 289 291 289 290 293 295 293 292 290 288 288 288 289 288 288 288 288 288 288 289 288 289 290 290 291 292 293 291 291 291 292 293 293 294 294 294 294 296 294 294 294 295 294 295 295 295 295 295 296 296 296 296 297 297 297 297 298 298 298 298 298 298 298 298 297 298 299 298 298 299 300 301 302 302 303 303 303 303 304
291 293 290 290 289 292 291 289 288 288 287 288 286 290 291 290 290 290 289 292 294 293 294 293 296 295 290 288 288 288 288 289 287 287 287 287 288 287 287 288 288 289 290 289 290 290 291 291 291 291 292 292 293 293 294 295 293 293 294 295 294 295 296 294 294 295 295 295 295 295 296 296 296 296 297 297 297 297 297 296 297 297 297 296 297 297 297 298 299 300 300 301 301 302 302 302 303
295 290 288 288 289 292 292 288 288 287 288 289 287 290 289 290 290 289 289 293 295 290 289 291 293 292 291 290 288 287 288 288 287 287 287 287 287 288 287 287 287 288 290 289 289 289 292 290 290 290 292 292 292 292 293 293 293 293 294 295 293 295 295 294 294 294 294 294 294 295 295 294 295 295 295 295 295 296 296 296 295 296 295 295 296 296 296 297 297 298 299 299 300 301 301 302 302
292 291 288 292 288 291 290 293 287 286 290 290 288 290 290 288 290 288 289 293 294 285 287 287 288 289 289 288 287 288 288 288 288 288 288 288 288 288 288 287 287 287 288 289 289 289 291 290 290 289 291 292 293 292 292 293 292 293 294 293 292 295 293 293 293 293 294 293 293 293 294 294 293 293 294 294 294 295 295 295 295 295 294 294 295 295 295 296 296 297 298 299 299 300 300 301 301
291 291 288 290 288 289 288 287 287 286 287 287 289 291 291 289 290 286 289 293 293 291 286 286 287 287 287 288 287 287 287 287 287 287 287 287 288 289 288 288 288 288 288 288 289 289 290 291 290 289 289 290 291 292 292 292 292 292 292 292 291 295 292 292 292 293 292 292 293 293 294 293 293 293 293 293 294 293 293 294 293 293 294 293 294 294 294 294 295 296 296 297 298 299 299 300 300
289 292 289 289 289 289 287 289 289 287 287 287 291 290 288 287 288 289 294 294 290 287 286 285 286 286 286 287 287 286 286 286 287 286 287 287 286 287 287 287 287 286 288 288 288 289 289 290 288 289 290 292 291 291 292 292 291 291 291 291 291 292 291 292 292 292 292 292 292 293 293 293 293 292 292 292 292 292 292 292 292 292 292 292 292 292 293 293 293 294 296 296 297 298 298 299 300
290 290 289 290 290 288 288 290 287 285 288 287 290 289 288 287 289 292 286 285 285 286 285 284 286 286 286 286 286 286 286 286 286 286 286 285 285 286 287 287 287 287 288 288 288 289 291 289 289 289 289 292 290 290 292 290 291 290 291 291 291 291 291 291 291 291 291 291 291 292 292 293 293 292 291 291 291 291 291 291 291 291 291 291 291 291 292 292 292 293 294 295 296 297 297 298 299
290 290 288 287 286 286 286 286 287 287 291 285 289 288 286 287 288 291 291 285 285 286 284 283 284 286 286 286 285 286 285 286 286 285 286 284 286 285 286 286 286 287 287 287 288 289 288 287 288 288 288 290 290 289 291 290 290 290 290 290 290 291 291 290 290 290 291 291 291 292 292 292 292 291 291 291 290 290 290 290 290 290 290 290 290 290 290 291 292 292 293 294 296 296 297 298 299
288 288 290 287 285 292 288 289 287 288 290 285 287 288 286 286 288 293 287 284 285 285 284 283 284 284 285 285 285 285 285 285 285 285 286 286 286 286 286 286 287 287 287 288 287 289 287 288 288 288 288 288 289 288 290 289 289 289 290 290 290 291 290 290 290 290 290 291 291 291 291 291 292 291 290 290 290 289 289 289 289 289 289 289 290 290 290 291 291 291 292 293 294 295 296 296 298
288 287 286 289 285 287 289 287 286 288 290 285 288 289 289 289 291 291 284 284 284 284 284 284 284 283 284 284 284 285 285 285 284 285 286 286 286 285 286 285 287 287 287 287 286 286 288 289 290 290 290 288 291 289 290 289 289 290 290 289 290 290 289 289 289 289 289 290 290 290 290 290 291 290 290 289 289 288 288 288 288 288 288 288 289 289 289 289 290 290 290 291 292 293 294 295 296
289 286 284 284 285 285 289 288 287 290 288 286 290 288 292 292 290 291 285 285 285 286 286 284 284 283 283 284 284 285 285 285 286 285 285 285 285 285 286 285 286 286 288 285 286 287 289 288 290 286 290 288 288 287 289 289 289 288 288 288 289 289 290 289 289 289 289 289 289 289 289 290 290 290 290 288 288 287 287 287 287 287 287 288 287 288 288 289 289 289 290 289 290 291 293 294 295
280 287 285 280 286 284 285 286 287 290 289 287 290 286 289 293 293 289 284 283 284 287 287 285 284 283 283 283 284 284 285 285 285 285 285 284 284 284 285 284 285 285 286 286 287 286 285 286 289 287 287 288 288 289 288 288 287 288 288 289 289 289 289 288 288 288 288 288 288 289 289 289 290 289 289 288 287 287 286 286 286 286 287 287 287 287 287 287 288 288 289 289 288 289 290 291 294
279 286 283 283 283 283 285 287 283 285 289 289 289 289 288 291 289 284 282 283 283 285 286 285 284 283 283 283 284 284 284 284 284 284 284 284 284 284 284 284 284 285 285 285 286 285 286 287 289 287 287 288 287 286 287 288 287 287 287 288 287 288 288 288 288 288 288 288 288 288 288 289 289 289 288 288 287 286 286 285 285 286 286 286 286 286 286 287 287 287 288 289 289 288 288 289 290
283 280 284 281 284 284 285 284 284 283 287 287 288 285 289 292 292 287 281 283 283 283 285 286 285 284 284 284 284 284 284 284 284 284 284 283 284 283 283 286 284 284 285 285 285 286 286 286 286 287 287 288 286 287 287 287 287 287 287 287 288 288 288 287 287 287 288 288 287 287 288 288 288 288 288 287 286 286 286 285 285 285 285 285 285 285 285 286 287 287 286 288 288 288 288 288 289
283 284 284 286 281 281 285 284 285 286 286 285 284 285 288 291 292 293 287 283 283 285 287 287 286 285 284 284 283 283 284 284 285 285 284 283 283 283 283 284 283 284 284 284 284 285 285 285 287 288 289 286 286 286 286 288 287 286 286 286 287 286 287 287 287 287 287 287 287 287 288 287 287 287 287 287 286 285 285 285 284 285 285 284 284 285 285 286 286 286 286 286 288 288 288 289 289
285 284 284 281 284 284 282 284 282 284 284 284 284 285 288 289 291 292 289 284 284 287 287 286 286 286 285 284 284 284 284 284 286 285 284 283 283 283 282 283 283 283 284 282 284 284 284 284 284 285 286 285 285 285 286 286 286 286 286 285 285 286 286 286 286 286 287 286 287 287 287 287 286 286 286 286 285 285 285 284 284 284 284 284 284 284 284 285 285 285 286 286 286 287 289 289 289
282 281 281 282 281 282 282 282 282 281 283 283 286 285 285 286 288 290 291 285 283 284 285 285 286 286 285 284 284 284 284 285 286 285 283 283 283 283 282 282 282 282 282 282 283 283 283 284 285 284 285 284 285 285 285 285 285 285 284 284 284 285 285 286 286 286 286 286 286 287 286 286 286 285 285 285 285 284 284 284 284 284 284 284 283 283 284 285 285 286 285 285 285 284 286 288 289
283 281 280 281 280 281 284 284 282 280 284 281 281 282 284 286 288 290 291 288 288 288 286 285 287 287 286 285 284 284 285 286 284 283 282 281 282 281 280 281 282 281 281 281 282 283 283 283 284 284 284 284 284 284 285 286 285 285 284 285 284 284 284 284 284 285 285 286 286 286 286 285 285 285 285 285 284 284 284 283 283 283 283 283 284 284 284 284 284 284 284 283 285 284 284 287 288
280 282 280 280 282 281 282 282 280 281 282 282 282 282 285 288 289 292 292 291 292 292 288 290 290 289 286 285 285 285 284 284 283 284 282 282 281 280 280 280 281 283 282 281 283 282 282 282 283 284 283 284 284 284 284 284 284 285 284 284 284 283 284 284 284 284 285 285 285 285 285 285 284 284 284 284 284 284 283 283 283 283 283 283 283 282 283 282 283 282 283 282 282 284 284 287 288
280 279 281 282 282 282 282 282 280 283 283 283 283 282 285 288 289 290 292 290 292 292 289 289 290 289 288 286 286 285 284 284 283 283 282 281 281 281 280 279 280 281 282 281 281 282 281 283 282 282 283 283 283 284 286 284 284 284 284 284 284 283 283 284 284 284 284 284 284 285 284 284 284 284 284 284 283 283 283 283 283 283 283 283 282 282 282 282 282 282 282 282 282 280 283 284 288
280 282 281 282 282 282 282 282 280 280 281 280 280 283 286 285 286 287 285 282 283 287 286 287 288 288 288 287 287 286 286 285 284 283 283 281 280 280 280 280 280 280 281 281 281 281 281 282 282 282 283 283 283 285 285 286 284 284 283 282 283 283 283 282 282 282 283 283 283 283 283 283 283 283 283 283 283 283 283 283 283 283 282 282 282 282 281 281 281 282 282 281 281 281 280 283 285
277 280 283 284 282 282 281 279 282 280 280 280 281 283 283 280 280 282 285 282 286 284 285 287 288 286 285 285 286 286 286 286 285 284 283 282 281 281 280 280 279 280 281 282 282 282 282 282 282 282 282 282 282 283 283 284 284 282 281 281 281 280 280 280 280 280 281 281 281 282 282 282 282 282 282 282 283 283 282 283 283 282 282 282 282 282 281 281 281 281 281 281 281 282 281 281 281
282 283 281 283 282 281 280 280 283 278 277 282 280 280 280 282 287 283 284 284 288 289 286 291 291 286 284 286 287 286 285 285 284 284 284 282 281 281 280 279 280 280 281 282 281 281 281 281 281 281 282 281 282 282 282 284 281 281 280 281 281 280 279 280 281 282 281 281 282 281 282 282 282 281 282 282 282 282 282 282 282 282 282 281 282 281 281 281 281 281 281 281 281 282 282 280 280
280 280 278 280 280 280 279 281 282 281 280 280 281 283 280 281 283 287 286 285 288 289 290 289 289 288 286 285 286 286 286 284 284 284 283 283 282 281 280 280 280 280 281 281 280 280 280 280 280 280 281 283 281 282 281 282 281 281 280 280 280 280 280 280 281 280 281 281 281 281 281 281 281 281 281 281 281 282 282 281 282 281 281 281 281 281 280 281 281 281 281 281 281 281 281 280 279
280 280 278 279 280 279 278 280 278 277 278 277 278 281 278 278 278 279 280 284 286 287 289 290 290 289 288 287 286 286 285 284 284 283 283 283 282 281 281 280 280 280 281 280 280 280 280 279 280 279 279 281 281 280 280 280 281 281 280 280 279 281 281 280 281 281 280 280 279 280 279 279 280 280 281 281 281 281 281 281 281 281 280 280 281 280 280 280 280 280 280 280 280 280 281 281 280
282 279 279 278 277 277 277 276 279 275 274 277 279 280 276 281 280 282 279 281 283 285 288 289 289 289 288 287 286 285 284 284 283 284 284 283 282 281 281 281 280 280 281 281 281 280 279 279 279 279 279 278 279 278 280 280 279 281 280 279 278 279 279 279 279 278 278 279 278 278 278 278 278 279 279 280 280 280 280 280 280 280 280 280 280 280 280 280 280 280 280 280 279 279 280 280 280
280 281 280 280 277 275 275 275 274 275 272 279 284 280 282 279 281 283 282 283 285 287 287 287 286 286 286 286 285 284 283 283 282 283 283 283 282 281 280 280 280 280 280 280 279 279 278 279 279 278 278 278 279 278 278 278 278 278 278 278 278 278 278 278 277 277 277 277 277 277 277 277 278 278 278 279 279 279 279 280 280 280 280 280 280 279 279 279 279 279 279 279 279 279 279 280 280
281 281 280 281 281 275 272 265 271 272 274 277 276 278 281 276 279 280 284 282 283 288 288 289 289 289 289 285 283 283 283 282 282 281 281 280 279 279 279 279 279 279 279 279 279 278 278 278 278 278 278 277 277 277 277 277 277 277 277 277 277 278 277 277 276 276 276 276 276 276 276 276 277 277 277 277 278 279 279 279 279 279 279 279 278 279 279 279 279 279 279 279 279 279 279 279 280
280 280 278 276 272 272 272 268 271 270 276 276 273 277 276 278 284 282 283 285 286 283 287 289 290 290 286 281 282 282 281 281 281 280 280 279 279 279 278 279 279 279 278 279 278 278 278 277 278 278 277 277 277 277 277 277 277 277 277 277 277 278 277 277 276 276 276 275 275 275 275 275 276 276 276 276 277 277 278 278 278 278 278 278 278 278 278 279 279 279 278 278 278 278 278 278 278
280 282 276 272 270 269 268 270 264 268 274 274 276 277 277 282 283 288 288 289 289 287 286 287 287 288 285 283 281 280 280 280 280 280 280 279 279 279 279 279 279 279 279 278 278 278 278 277 277 278 278 277 277 276 276 276 276 276 277 277 276 277 276 276 276 275 275 275 275 275 275 274 274 275 275 275 277 277 277 277 278 277 278 278 278 278 278 279 279 278 278 278 277 278 278 278 278
281 281 283 280 273 270 272 267 273 278 278 272 274 272 274 272 281 282 289 292 291 288 286 284 284 282 281 280 279 279 279 279 279 279 280 280 279 279 279 279 279 279 279 279 278 278 278 277 276 278 277 276 276 276 276 276 276 276 276 276 276 276 275 275 275 276 275 275 274 274 274 274 274 275 275 276 276 276 277 277 277 277 277 277 278 278 278 278 278 278 278 278 278 278 278 278 278
279 278 280 277 279 278 276 272 268 269 273 276 270 277 277 283 282 283 278 279 284 285 284 281 283 281 279 279 280 280 279 279 279 279 279 280 280 279 279 279 279 279 279 279 278 278 277 277 276 277 277 276 276 276 276 276 276 276 275 275 275 275 276 276 275 275 274 274 273 273 273 274 274 274 275 275 276 276 276 276 277 277 277 277 277 278 278 278 278 277 277 277 277 278 277 277 277
280 281 278 281 282 283 277 272 270 269 267 276 271 277 282 282 285 285 285 282 284 282 282 281 283 282 278 280 281 280 279 279 279 279 279 279 279 279 280 279 279 279 279 278 278 277 277 277 276 276 276 275 275 276 275 275 275 274 275 274 274 274 274 273 273 273 273 273 273 273 273 273 274 274 275 275 275 276 276 276 276 276 276 277 277 277 277 277 277 277 276 276 276 277 277 276 277
280 275 279 281 281 281 278 274 270 264 269 276 270 278 281 279 279 283 284 282 285 283 282 282 283 278 278 281 281 281 280 279 279 279 279 279 279 280 279 280 280 279 279 278 277 277 277 277 276 276 275 275 275 275 275 275 274 274 274 274 274 273 273 273 272 272 272 272 272 273 273 273 273 274 274 274 275 275 275 275 275 275 275 276 276 276 276 276 277 276 276 276 276 276 276 276 276
279 277 282 282 276 276 275 270 272 270 267 270 275 280 281 282 282 281 282 283 285 285 283 282 282 280 279 281 281 281 279 278 278 278 278 279 279 279 279 279 279 279 279 278 277 276 276 276 276 276 275 275 275 275 275 274 274 273 273 273 273 272 272 272 272 272 272 271 271 272 272 272 272 273 273 273 273 274 274 274 274 274 274 275 275 275 276 276 276 275 276 276 276 276 275 275 276
281 282 281 281 279 273 273 278 271 273 270 267 276 279 278 282 282 284 286 285 286 286 283 283 284 284 282 282 282 282 279 279 278 278 278 279 279 279 279 279 278 278 277 276 276 275 275 275 276 274 274 274 274 273 274 273 273 273 272 272 272 272 272 272 271 271 271 271 271 271 271 271 272 272 272 273 272 272 272 272 273 273 273 274 274 274 275 275 275 275 275 275 275 275 275 274 274
277 278 276 276 275 277 276 275 273 275 268 269 271 275 280 284 284 285 287 286 286 286 286 286 285 284 284 283 283 282 280 279 279 279 278 278 279 279 279 278 278 277 276 275 275 275 274 274 274 275 274 273 273 273 272 272 272 272 272 271 271 271 271 271 271 271 270 270 271 271 271 271 272 271 272 271 271 271 272 272 272 272 273 273 273 273 274 275 274 274 274 274 274 274 274 273 273
282 282 280 282 278 274 272 276 273 267 272 272 269 275 282 285 283 287 286 286 286 286 288 288 286 285 283 282 282 281 281 280 279 279 278 278 278 278 277 277 276 275 275 274 275 274 273 273 273 273 273 272 272 272 272 272 272 271 271 271 271 271 271 270 270 270 270 270 270 270 271 271 270 271 271 270 270 271 271 272 271 272 272 272 272 273 273 273 273 272 272 273 273 273 273 272 272
Wind_Speed
3 3 2 3 4 3 1 6 2 2 2 1 1 1 1 1 1 2 3 3 2 2 2 1 4 2 4 4 7 5 1 5 4 8 4 3 3 3 4 5 5 4 4 6 7 7 8 10 14 15 15 16 16 16 17 17 17 18 17 17 18 18 19 19 18 17 18 17 16 15 15 15 15 14 13 12 11 11 10 10 10 9 10 12 16 11 11 11 10 10 10 9 8 5 4 5 5
2 4 5 2 2 2 2 1 4 2 6 3 2 2 3 1 2 5 8 8 3 2 3 5 7 8 8 8 8 4 4 2 3 1 0 0 1 1 5 5 5 6 6 6 6 6 6 8 13 14 15 15 16 16 16 17 17 18 18 18 18 19 19 18 19 18 19 19 19 20 19 19 18 18 18 18 15 13 13 11 9 10 10 10 13 15 15 17 15 12 10 10 10 7 5 5 5
3 4 4 3 3 3 3 3 3 1 3 1 2 6 2 5 5 5 7 6 7 9 5 6 5 3 2 1 1 1 3 2 1 1 2 2 3 2 6 5 5 5 5 5 5 6 5 9 13 15 15 16 16 16 17 17 17 17 18 18 18 18 19 19 17 17 17 18 18 18 19 18 19 19 19 19 19 17 16 15 13 11 11 11 11 12 13 14 16 16 13 12 12 10 8 7 7
6 4 5 3 2 3 1 4 4 6 1 3 1 4 4 7 7 6 5 7 11 7 1 2 1 2 3 2 3 3 3 2 2 3 3 1 1 2 4 5 5 4 3 4 5 5 5 11 14 15 15 16 16 16 17 17 17 18 18 18 18 18 18 17 17 18 19 19 18 16 17 18 18 18 19 20 20 20 20 20 19 18 16 14 13 13 13 13 14 15 16 16 13 12 10 9 8
2 3 2 3 3 1 3 1 4 2 0 6 2 2 5 6 7 5 5 7 6 5 1 2 3 3 1 1 2 3 5 1 1 2 2 1 0 1 2 4 4 3 5 6 6 6 6 14 14 14 15 15 16 16 17 17 17 18 18 18 18 18 18 18 18 18 18 18 17 17 17 17 18 18 19 19 19 19 19 20 20 19 19 17 15 14 13 13 13 13 13 15 14 14 12 11 9
5 2 4 2 1 2 5 2 2 1 3 7 3 4 7 8 11 9 9 6 5 5 5 4 3 5 2 2 2 1 3 5 5 2 3 2 1 2 2 2 2 5 5 5 6 5 6 13 14 14 15 15 16 16 17 17 17 17 17 18 18 18 18 18 18 18 18 17 17 17 17 18 18 19 19 19 19 18 18 18 18 18 17 17 18 17 16 16 15 14 13 13 13 15 14 12 12
2 3 4 3 2 3 4 4 4 4 3 7 2 3 10 8 8 10 6 2 2 3 5 4 4 4 2 2 1 2 1 1 2 4 3 4 3 3 2 1 3 6 5 5 5 6 8 14 14 14 15 15 16 16 16 17 17 17 17 17 17 17 17 17 17 17 17 17 17 17 17 18 19 19 18 19 18 18 19 19 18 18 18 18 18 18 19 18 17 16 15 14 14 14 14 14 14
3 2 2 1 1 4 2 2 3 4 0 6 2 1 7 9 8 8 10 8 6 7 5 2 3 2 2 3 4 0 3 1 0 3 3 4 4 2 2 2 5 4 5 5 5 6 7 14 14 14 15 15 16 16 16 17 17 17 17 17 17 17 17 17 17 17 17 17 17 18 18 18 18 18 18 18 18 18 18 18 18 18 18 19 19 20 19 19 19 18 17 16 15 15 14 15 15
4 6 1 3 2 4 2 1 2 4 6 3 7 4 2 9 11 9 10 5 3 2 5 8 5 5 4 4 2 1 3 1 2 3 5 5 4 2 2 3 4 4 5 5 5 5 6 12 14 15 15 15 16 16 17 17 17 17 17 17 17 17 17 17 17 17 17 17 17 18 17 17 17 17 17 17 18 18 18 17 18 18 18 18 19 20 20 19 20 21 20 18 18 17 15 15 15
2 1 2 2 3 0 3 2 2 4 4 5 4 4 7 7 8 5 10 5 7 5 6 3 3 1 5 7 0 2 3 6 4 5 4 3 2 2 3 2 2 4 5 4 4 4 5 9 14 14 14 15 16 16 16 16 17 17 17 17 17 17 17 17 17 17 17 17 17 17 17 17 17 17 17 17 18 18 18 17 17 17 18 18 18 18 19 19 19 19 20 20 19 18 16 16 15
1 6 3 3 4 2 3 2 5 4 3 4 6 8 7 9 8 5 5 3 1 6 5 2 1 5 6 3 4 1 2 7 7 9 5 4 3 3 3 2 2 3 5 6 4 5 5 6 11 14 14 14 15 16 16 16 17 17 17 17 17 17 17 17 17 17 16 17 17 17 17 17 17 17 17 18 18 18 18 17 17 17 18 18 18 18 18 19 19 19 19 19 19 19 19 18 16
1 1 2 3 3 5 4 3 2 6 7 3 2 1 5 11 5 5 5 8 7 4 8 9 2 8 3 2 3 3 3 7 8 7 6 4 4 2 2 2 3 4 4 5 4 5 5 5 5 9 13 14 15 15 16 16 17 17 17 17 17 17 17 17 17 17 17 17 17 17 17 17 16 17 17 17 17 18 17 17 17 17 17 18 18 18 18 18 18 19 19 20 19 19 20 20 19
2 2 5 3 1 1 0 0 2 2 4 6 4 1 5 9 9 7 8 1 6 6 7 10 4 2 4 5 2 1 7 10 8 7 6 5 3 2 2 2 3 5 5 4 5 5 5 4 5 5 8 12 12 14 15 16 16 17 17 17 17 17 17 17 17 17 17 17 17 17 17 17 17 17 17 17 17 18 17 17 17 17 17 17 18 18 18 18 18 18 18 18 18 19 19 19 19
3 5 5 2 2 2 3 2 2 2 5 3 0 2 4 3 4 4 8 6 10 9 2 5 5 4 2 2 3 6 8 10 9 7 5 5 3 2 3 2 4 5 5 4 5 4 4 4 4 4 5 6 6 8 11 15 15 16 16 16 17 17 17 17 17 17 16 16 16 16 15 15 15 16 16 16 17 17 17 17 18 18 17 17 18 18 18 18 17 17 17 18 18 18 18 19 19
2 2 6 5 2 1 4 2 5 4 5 3 3 6 3 2 2 3 8 7 11 2 0 1 5 4 6 11 5 9 11 11 9 7 7 5 4 3 3 2 5 5 4 4 3 4 4 4 4 4 5 5 6 5 5 8 15 14 15 15 15 16 16 16 16 15 15 14 14 14 13 12 12 13 14 15 15 16 16 15 18 18 18 18 18 18 17 17 17 17 17 17 17 17 17 18 18
5 5 4 3 1 2 2 2 2 3 7 5 2 2 4 1 1 3 5 0 1 1 2 6 3 4 1 8 1 3 11 11 9 8 7 7 4 3 3 4 5 4 3 3 3 2 2 4 3 4 4 5 4 4 5 6 10 12 12 13 14 14 15 14 14 14 12 12 12 12 10 8 8 8 10 10 13 14 14 13 15 16 17 18 18 18 18 17 17 17 17 17 17 17 17 16 15
2 3 1 4 1 2 2 4 5 3 5 5 2 4 5 3 1 2 1 2 4 2 4 2 6 2 5 4 2 5 11 10 8 10 8 6 6 4 3 4 4 3 2 2 2 2 2 3 4 3 3 4 4 4 4 4 6 8 7 9 11 12 12 12 12 11 10 9 9 9 6 6 5 6 6 7 8 9 11 13 14 15 15 15 16 17 17 17 17 17 17 16 16 16 16 15 13
1 1 5 1 1 3 6 7 10 2 1 2 6 7 5 3 1 1 2 3 2 1 5 5 5 6 3 4 2 2 9 14 13 14 10 9 6 6 5 3 3 4 2 2 2 2 2 3 4 3 3 4 3 2 2 3 3 5 5 4 5 6 7 8 7 7 7 6 8 6 6 5 5 5 5 7 6 7 8 11 12 14 14 15 14 15 15 16 16 16 16 16 16 16 15 8 9
3 2 2 2 5 4 8 6 7 2 2 2 4 5 4 6 9 4 2 3 2 3 6 3 8 8 1 1 3 9 10 11 12 12 12 11 8 9 7 4 4 3 3 2 1 2 1 1 2 3 3 2 3 3 2 3 3 3 4 4 3 5 5 5 5 5 5 6 6 6 5 5 5 5 5 6 5 7 7 10 12 12 12 13 14 13 13 14 15 15 15 15 15 15 8 7 7
1 2 1 3 8 3 7 5 6 7 2 2 4 2 3 1 5 3 4 1 2 10 8 5 10 14 10 7 6 9 10 10 9 10 10 10 8 9 8 7 6 5 4 3 2 0 1 2 2 1 2 2 2 2 2 2 3 3 3 3 3 3 4 4 4 5 4 5 5 5 5 5 5 5 6 7 5 5 5 7 10 10 10 9 12 8 9 10 13 12 13 14 9 6 7 7 8
1 2 3 2 2 0 3 9 7 6 2 1 5 2 2 3 5 4 3 1 9 11 11 13 17 19 13 11 10 9 11 11 10 10 10 10 8 6 8 8 7 6 4 2 0 1 1 1 0 2 2 2 2 1 2 2 2 2 3 3 3 3 4 4 4 5 5 6 6 5 5 5 4 4 5 5 5 5 5 5 5 6 6 7 10 7 7 7 7 7 7 8 7 7 7 7 8
3 1 2 2 2 1 4 9 3 4 1 4 2 4 7 3 2 5 9 9 12 11 15 15 14 7 13 15 13 10 11 12 11 12 12 12 13 10 6 4 1 1 1 3 3 2 1 0 1 1 2 1 1 0 0 1 2 3 3 3 3 3 4 3 3 4 4 5 5 6 6 6 6 5 5 5 5 5 6 6 6 6 6 6 6 6 7 7 7 7 7 7 7 7 7 8 8
1 1 2 4 3 2 0 2 4 5 3 4 3 5 5 5 2 4 9 17 6 2 2 6 11 6 11 10 13 12 13 14 14 15 13 12 11 10 9 6 6 6 4 4 2 1 1 1 1 1 1 1 1 1 1 1 2 2 2 3 4 4 4 4 4 4 5 5 6 6 6 6 5 5 5 5 6 6 6 7 7 6 7 7 7 6 7 6 6 7 7 7 7 7 8 8 8
1 3 1 3 6 6 2 0 4 4 7 4 3 2 4 3 5 1 9 18 10 3 2 3 4 8 12 14 14 18 18 17 17 14 12 12 12 11 9 9 6 4 5 5 3 3 2 1 0 1 1 0 0 1 2 2 3 3 3 4 4 5 5 5 4 5 5 5 6 5 5 5 5 5 6 6 6 6 7 7 7 7 7 7 7 6 7 7 7 6 7 8 8 7 8 8 8
1 0 2 1 2 7 6 2 1 2 4 1 1 2 6 6 3 4 14 14 10 8 3 4 7 9 10 12 15 13 12 10 11 10 7 6 7 7 6 4 5 5 7 6 4 3 2 1 0 1 1 0 1 2 3 2 3 3 4 4 4 5 4 4 4 4 4 4 5 5 5 5 5 5 6 7 6 6 6 6 6 7 7 7 8 8 7 8 8 7 7 7 7 8 8 8 8
2 1 2 0 3 5 4 4 3 2 1 2 0 8 4 2 3 9 24 12 7 4 3 7 8 9 12 14 15 15 15 15 12 12 12 8 7 9 8 7 6 8 8 7 5 4 2 1 1 1 1 1 1 2 2 3 3 3 4 4 3 3 3 3 4 3 3 3 4 5 6 5 5 6 6 6 6 6 6 6 6 7 7 7 7 8 8 8 8 8 8 8 8 8 8 9 8
2 2 3 3 2 3 3 1 2 2 2 4 4 6 3 3 2 11 3 4 7 6 5 5 9 12 12 11 11 11 14 16 16 10 8 8 8 9 9 7 8 9 7 7 5 4 2 2 1 1 1 1 1 2 2 2 2 3 3 2 2 3 3 3 3 3 3 4 4 5 5 5 5 5 6 7 6 7 6 7 7 7 7 7 7 7 7 8 8 8 9 9 9 9 8 8 9
1 1 2 3 5 4 5 3 6 1 3 8 6 5 1 1 1 15 4 2 4 8 7 7 9 10 11 11 11 9 10 9 8 10 16 15 12 10 11 11 10 9 8 8 6 4 3 3 2 1 0 1 1 2 2 1 2 2 2 2 3 2 3 2 2 2 3 3 3 3 4 5 5 6 7 7 7 7 6 6 6 7 7 7 8 8 9 8 8 8 10 9 10 9 9 8 8
0 1 2 4 8 4 2 2 1 3 3 7 5 3 4 3 11 17 2 4 4 5 8 8 9 8 8 9 9 10 12 10 9 11 13 11 9 9 13 10 11 10 6 8 7 5 5 4 3 2 1 2 3 2 1 1 1 2 2 2 2 2 2 1 1 2 2 2 2 3 4 5 5 5 6 7 7 6 6 6 6 6 6 7 7 9 10 8 7 8 8 8 9 9 9 9 8
1 3 1 4 6 5 1 0 1 3 2 6 2 8 6 12 21 10 4 6 4 3 8 9 8 7 8 9 10 10 8 10 13 13 9 9 10 10 12 11 10 10 8 6 5 6 4 3 2 2 1 2 2 1 1 2 2 1 1 1 2 1 1 1 1 1 2 2 3 3 3 4 4 4 5 6 6 6 6 5 5 6 6 7 7 7 8 7 7 8 9 8 8 8 9 9 9
1 1 4 1 5 3 1 1 1 1 2 3 0 5 14 8 9 10 5 8 10 9 10 9 8 8 9 10 11 12 12 11 12 9 9 9 8 9 10 10 9 9 8 7 9 9 6 5 3 3 1 1 1 2 3 2 2 1 1 1 1 1 1 1 1 1 2 2 2 2 3 3 4 4 4 5 5 5 6 5 5 5 6 7 7 7 7 7 7 8 8 9 9 8 9 9 10
3 2 4 3 1 4 6 3 4 5 1 1 2 6 15 17 11 3 5 6 5 10 10 10 9 10 11 11 12 12 11 9 8 8 10 10 10 10 10 11 10 9 11 11 8 7 8 6 4 5 2 2 2 2 2 2 2 1 1 2 2 1 1 1 1 2 2 2 2 3 3 3 4 4 4 4 5 5 5 6 5 6 7 7 7 7 7 7 7 7 7 8 9 9 10 10 9
5 2 4 4 0 5 8 0 3 2 0 1 6 8 8 13 4 1 3 7 8 10 10 9 11 12 12 11 11 10 9 9 9 11 11 10 10 10 10 11 10 11 10 11 11 9 8 7 5 5 4 2 2 2 2 2 2 2 2 2 2 2 2 2 2 2 2 2 2 3 3 4 4 4 4 4 4 5 5 5 5 6 6 6 6 7 7 7 7 7 7 7 8 9 10 12 11
3 2 3 3 3 3 5 4 1 1 3 3 2 3 13 17 13 5 5 8 7 11 13 11 11 12 12 11 11 11 11 11 14 14 15 11 9 10 10 9 12 11 10 11 11 11 10 8 7 5 4 1 1 1 2 2 2 2 2 2 2 2 2 2 2 2 3 3 2 3 4 4 4 4 4 4 4 4 4 5 5 5 6 5 6 6 6 6 7 7 9 8 8 9 10 10 12
3 2 3 7 2 5 9 3 1 1 1 4 2 8 18 20 19 17 8 9 9 15 15 12 12 13 13 12 11 12 13 13 15 12 12 11 11 11 10 10 10 10 9 10 9 8 8 7 5 4 3 2 1 1 2 1 2 2 1 2 2 3 3 3 3 3 3 3 3 4 4 4 4 5 5 5 5 5 4 4 4 5 5 5 5 6 6 6 7 7 9 10 8 8 10 11 12
5 6 6 4 6 6 7 6 3 1 5 7 9 11 16 17 19 20 6 9 12 17 12 8 12 13 11 11 12 12 14 15 12 8 9 9 10 11 10 9 10 10 9 9 9 8 8 6 4 3 2 2 1 1 1 1 1 2 2 1 2 3 3 4 4 4 3 3 3 4 4 5 5 5 5 5 5 5 5 5 6 5 5 6 6 7 7 7 9 10 9 10 12 10 9 10 11
3 2 2 8 7 8 7 3 3 0 1 11 17 11 13 18 19 21 14 3 10 14 13 11 14 14 11 11 13 15 15 17 8 8 10 11 12 11 10 9 10 9 9 10 9 8 8 8 7 6 4 3 2 2 2 2 2 1 1 2 3 3 3 3 3 3 2 3 4 4 4 5 5 5 5 6 6 5 5 5 6 6 6 6 7 7 8 10 9 9 10 9 10 11 9 8 10
4 3 4 8 4 11 5 3 1 4 1 5 4 6 14 17 18 21 15 5 19 20 12 14 20 17 11 12 15 15 16 3 6 8 10 10 11 11 9 9 10 13 10 9 11 10 9 7 8 6 4 4 4 4 3 2 2 2 2 3 2 3 4 3 3 2 3 3 4 5 5 5 6 6 6 6 6 5 6 6 6 7 7 7 7 8 9 9 10 9 9 10 6 9 9 8 9
1 4 3 3 9 6 10 4 3 0 1 9 7 11 16 19 19 23 22 17 19 13 11 18 18 17 11 12 14 13 9 12 10 13 10 12 12 11 10 9 10 11 12 11 10 9 8 7 7 6 5 6 5 4 3 3 3 3 3 3 2 3 3 3 3 4 4 5 4 5 5 5 5 6 6 6 5 5 5 5 6 6 6 7 8 8 8 9 8 9 9 9 11 8 9 8 9
5 2 2 10 3 3 8 2 3 1 3 6 4 15 19 17 18 25 22 8 15 11 10 17 15 16 13 15 14 12 14 14 16 15 15 13 13 12 10 11 11 9 10 9 9 10 8 8 8 7 7 7 5 5 5 5 3 2 2 2 4 3 4 4 5 5 5 6 6 4 4 5 6 7 7 7 5 5 6 6 6 6 7 7 8 9 9 9 8 8 8 9 9 13 8 8 6
2 5 6 6 3 6 8 4 5 4 2 1 10 12 14 9 12 10 2 2 4 9 5 12 14 10 8 5 7 13 17 17 15 13 13 13 14 15 14 12 10 12 11 13 12 11 9 11 10 10 9 8 6 5 6 4 3 2 1 2 3 4 3 3 4 4 4 5 7 7 7 5 7 8 8 7 6 6 6 6 7 7 8 8 8 8 8 8 9 8 9 9 9 9 13 9 9
3 8 14 9 5 6 4 3 4 5 4 3 4 12 10 3 6 9 9 6 7 3 4 13 13 8 9 12 13 11 13 11 14 16 17 18 18 15 12 12 13 12 13 13 12 11 10 9 9 8 6 6 6 6 6 4 4 4 2 2 2 2 4 2 3 4 5 5 6 6 7 6 6 7 7 7 6 6 6 6 7 8 9 8 8 8 9 9 9 9 8 9 10 10 11 13 12
1 7 6 9 6 4 1 3 2 4 3 1 3 3 18 6 1 2 5 3 11 8 7 15 14 6 9 12 12 12 12 10 9 11 13 15 16 15 15 14 15 14 13 10 10 9 9 9 9 8 8 6 5 5 6 5 4 4 5 4 3 4 5 5 3 4 5 6 6 7 7 6 6 7 7 6 6 6 6 7 7 8 8 8 8 8 9 10 9 9 8 8 9 10 10 13 14
6 1 4 5 4 4 5 2 3 6 1 4 1 4 11 19 7 6 5 7 11 16 19 14 14 10 11 12 12 11 10 11 12 14 16 17 17 20 21 19 15 15 11 10 9 8 10 9 9 8 6 6 6 5 5 5 5 5 4 4 4 4 5 7 5 5 5 6 7 8 7 7 7 7 7 7 6 6 6 7 7 8 8 9 8 8 9 9 9 9 9 10 10 10 12 13 15
4 2 6 6 5 4 5 3 4 2 4 6 5 2 4 11 4 2 2 5 11 16 17 16 12 9 10 11 11 11 10 12 13 14 16 18 19 19 17 16 13 11 11 11 11 10 8 8 8 7 7 6 5 6 5 5 5 5 4 3 4 4 5 6 5 5 6 6 8 7 7 8 7 7 7 7 7 7 7 8 8 9 9 9 9 9 9 10 11 11 11 10 11 11 11 13 14
1 7 6 6 7 7 2 3 1 4 2 10 8 10 6 23 6 3 3 2 10 13 15 14 12 10 7 8 8 7 7 9 11 14 13 14 15 15 14 11 11 13 10 10 9 8 8 8 9 9 8 6 6 6 5 5 5 4 4 4 5 5 4 5 4 6 6 5 7 8 7 7 7 7 6 6 7 7 8 8 9 9 10 10 10 10 11 11 11 11 12 14 13 15 11 13 15
6 5 4 3 6 4 3 6 2 3 6 10 16 15 13 16 5 10 9 10 12 12 8 8 8 8 9 7 5 6 8 9 9 10 10 11 10 11 12 15 14 11 9 10 8 9 9 10 10 10 9 6 5 6 6 6 5 4 4 5 6 6 5 5 5 6 5 5 7 7 6 7 7 7 6 6 7 7 8 8 9 9 10 10 10 11 11 11 11 12 13 15 15 16 13 14 15
4 2 2 4 2 6 3 4 4 1 10 3 3 12 14 13 6 5 8 5 7 13 12 11 9 9 7 3 5 7 8 9 8 8 9 9 9 10 11 14 14 13 10 9 9 9 10 10 10 10 7 7 5 5 5 4 4 4 4 5 5 6 5 5 6 7 6 7 7 8 7 7 7 6 6 7 6 6 7 8 9 10 10 10 11 10 11 11 11 12 13 13 14 14 14 14 14
3 5 4 1 6 7 5 2 2 6 9 2 4 8 4 18 21 2 7 12 12 10 10 11 10 9 4 2 5 6 6 6 8 9 9 11 13 14 16 15 13 15 13 12 10 11 10 10 11 11 9 7 6 5 5 5 4 4 5 5 6 5 6 6 6 7 6 6 6 7 7 8 7 7 6 7 8 8 8 9 9 9 10 10 11 12 12 13 14 13 14 15 15 16 15 14 14
6 7 5 4 1 1 5 7 1 7 7 5 4 1 10 10 9 17 20 18 17 13 15 11 7 7 5 4 5 5 7 8 9 10 10 12 12 14 14 14 14 13 13 13 11 12 10 10 11 10 9 7 5 5 4 4 4 5 5 5 5 5 5 5 6 6 6 6 6 7 7 7 8 8 9 9 8 10 9 10 11 12 12 13 13 13 14 15 14 15 15 15 16 14 14 16 17
10 3 10 9 8 5 7 3 8 11 11 2 5 2 10 2 7 5 19 21 14 9 10 8 8 7 6 5 5 6 7 8 8 10 12 14 14 14 14 15 14 13 13 11 13 12 11 11 10 10 9 7 6 5 4 5 4 5 5 5 5 4 5 5 6 6 6 6 6 7 8 7 8 8 8 9 9 10 11 11 12 13 13 13 13 14 13 14 16 15 15 15 16 14 15 16 16
3 3 5 5 9 6 7 4 3 4 7 10 3 9 4 8 1 3 3 5 8 9 8 6 10 8 5 6 8 9 8 9 10 12 12 13 12 13 12 14 15 13 14 12 13 13 11 11 10 10 10 8 6 5 5 5 5 4 5 5 5 5 5 5 5 5 5 6 7 7 8 8 8 9 9 10 10 10 11 12 12 13 13 13 14 14 15 15 14 15 15 15 16 14 14 19 17
5 6 7 6 1 5 2 3 1 3 4 17 1 11 11 7 10 7 7 3 9 6 7 6 13 9 4 9 10 8 9 9 11 13 13 13 11 13 14 14 14 14 13 14 15 13 13 11 10 9 8 7 7 6 6 5 5 4 5 5 5 5 6 6 6 6 7 6 7 7 7 8 9 9 9 9 11 10 11 12 12 13 13 13 14 14 15 15 15 15 16 16 18 15 17 18 17
9 4 7 2 2 4 5 5 3 2 7 12 3 16 20 9 16 1 4 3 11 10 10 11 12 4 7 12 10 10 12 12 10 10 10 10 12 14 13 12 15 17 17 15 14 13 11 12 12 11 8 9 7 6 6 5 5 5 4 5 5 5 5 5 5 6 6 7 7 7 7 8 8 8 9 9 10 12 12 12 12 13 13 14 14 14 14 16 15 16 16 18 16 17 17 16 17
3 3 2 6 3 1 2 4 6 6 6 8 11 21 18 15 16 4 4 12 15 15 11 10 12 10 13 12 12 11 8 7 10 12 12 12 14 15 16 17 15 14 13 13 12 12 11 10 9 10 11 9 9 6 5 4 4 3 4 4 4 4 4 4 5 6 6 7 8 7 8 9 9 10 10 10 11 12 12 12 12 13 13 13 13 14 14 15 15 15 16 15 16 16 15 18 16
1 0 1 1 2 2 6 8 3 5 6 1 19 16 21 4 8 11 13 15 16 11 8 13 17 15 14 12 12 12 11 12 12 12 13 14 14 15 16 16 17 17 15 13 14 11 13 11 11 9 8 7 7 6 5 5 4 4 4 4 4 4 4 5 5 6 6 7 8 8 9 9 10 9 10 11 11 12 13 13 12 13 15 14 14 14 14 14 14 14 14 15 15 15 18 18 18
2 2 2 1 1 3 4 1 4 6 5 7 8 14 23 7 10 12 12 15 14 13 15 14 13 14 14 13 13 12 11 12 13 13 13 14 14 13 12 10 10 9 9 11 13 14 12 11 12 10 12 9 7 6 5 4 4 4 4 4 4 4 5 5 6 6 8 8 8 8 8 9 10 10 10 12 12 13 13 13 14 13 13 13 14 14 13 13 14 15 16 14 17 17 18 19 17
13 15 14 17 10 4 2 13 2 2 4 9 4 20 21 5 4 8 8 8 8 11 13 13 13 14 12 13 13 11 10 13 13 13 12 11 11 10 8 8 9 11 11 13 12 12 13 13 12 11 9 7 7 6 5 4 4 4 4 4 4 4 4 5 6 7 8 8 8 8 9 9 11 11 11 12 13 12 11 13 13 14 14 14 15 15 15 14 16 16 15 13 14 17 17 19 20
Wind_Direction
15 59 73 112 74 105 48 8 189 348 60 65 337 145 192 92 151 96 215 24 228 240 213 247 175 200 207 221 152 128 224 147 215 148 210 138 145 98 40 358 335 323 324 327 334 335 346 14 40 45 47 48 47 46 45 44 43 43 43 45 47 48 49 49 46 45 43 42 41 35 34 34 31 24 14 3 356 351 342 329 319 308 310 321 312 312 310 309 311 312 314 315 313 307 280 265 275
73 80 66 12 29 41 202 125 95 350 40 92 224 109 231 228 64 216 183 190 201 137 106 110 90 92 74 85 109 149 70 336 178 86 226 211 105 73 23 359 342 344 343 339 336 340 346 18 42 49 51 50 50 49 48 47 45 44 43 43 44 44 43 46 45 42 42 39 36 34 32 32 32 29 29 26 21 9 2 356 338 326 325 319 315 325 328 325 317 310 310 312 313 310 306 300 274
104 106 77 35 32 67 97 26 266 358 98 131 250 206 20 151 202 223 207 189 146 143 144 101 105 77 73 17 80 120 178 342 6 236 89 345 154 36 355 347 341 343 344 324 338 348 347 35 43 49 52 51 52 50 49 48 47 46 45 45 46 45 43 42 43 44 45 40 38 33 29 32 32 28 29 30 28 25 21 13 5 355 343 336 328 326 322 322 316 310 312 315 316 316 316 308 299
92 40 149 87 245 34 65 34 88 131 124 196 313 252 184 174 215 218 244 182 152 144 106 210 99 267 147 134 182 113 51 195 214 155 134 91 119 347 328 338 341 347 335 346 352 352 360 41 45 49 50 52 51 51 50 49 48 46 46 45 45 46 45 41 41 41 41 41 38 35 35 35 34 33 31 29 29 26 25 23 19 16 9 357 340 330 326 324 326 332 323 314 315 317 317 314 306
73 43 83 100 115 233 108 112 139 107 85 192 163 247 223 201 168 177 177 168 167 142 135 171 92 1 248 102 129 173 195 74 333 193 119 95 281 257 315 339 357 355 13 1 357 357 5 44 48 50 52 54 53 53 51 50 49 48 47 47 47 45 44 42 40 43 43 42 39 37 35 36 36 35 36 33 30 28 26 24 18 15 13 10 4 355 342 335 332 329 322 312 314 315 316 317 314
64 63 7 101 255 149 72 84 65 137 220 151 132 217 201 194 157 175 160 204 246 239 201 177 168 189 217 240 192 180 181 151 156 161 146 162 114 27 3 317 17 32 11 3 2 356 14 43 49 51 53 53 54 54 53 52 51 51 50 50 48 48 46 44 43 43 44 44 41 38 37 36 37 34 33 33 30 29 28 28 22 14 12 9 8 3 358 352 343 333 327 325 322 319 320 324 320
212 61 2 23 43 51 171 124 183 179 234 156 216 205 174 187 170 145 172 155 266 194 160 192 128 120 56 247 8 234 333 131 134 161 170 141 65 36 1 21 44 44 12 10 6 358 18 45 48 52 54 55 56 56 56 55 54 54 54 53 52 50 48 47 46 46 46 43 41 40 38 38 37 35 32 30 29 26 25 24 20 16 13 13 10 8 4 360 350 345 339 332 326 326 325 325 323
63 153 302 123 276 44 45 162 182 170 64 187 253 201 199 180 160 170 176 165 203 188 189 166 178 106 220 1 170 67 5 151 9 83 111 92 72 40 14 48 77 45 26 18 10 6 2 45 48 52 53 53 54 55 55 55 55 55 55 53 51 50 49 47 46 46 44 42 40 39 39 39 38 37 34 33 30 27 25 22 18 16 15 17 14 12 8 1 357 350 345 345 338 333 330 326 321
3 86 287 71 47 22 76 110 233 240 292 276 267 206 222 184 170 157 177 217 21 238 152 174 214 169 219 127 175 302 304 179 231 103 108 95 104 36 49 45 79 68 41 27 18 359 353 42 49 51 53 55 54 53 54 53 52 52 51 52 51 50 49 48 47 46 45 41 39 38 38 38 37 36 35 34 31 28 26 23 20 18 16 17 17 12 7 5 4 359 357 357 355 350 341 330 323
43 64 247 112 134 50 4 278 127 205 219 224 227 202 178 168 178 182 173 205 210 119 187 97 167 232 128 170 68 254 188 163 143 102 93 107 77 60 64 49 42 84 63 40 22 11 15 20 46 49 50 54 55 54 54 54 54 52 50 49 49 49 49 48 47 47 45 43 40 38 37 36 36 35 34 33 31 28 25 23 21 20 18 18 17 12 7 6 4 2 2 1 356 351 344 337 329
262 23 125 81 28 86 211 239 252 314 252 302 279 237 194 161 160 161 180 211 126 161 174 168 233 161 156 247 206 318 339 135 148 156 162 120 88 87 83 31 37 47 68 43 26 26 22 19 25 43 46 48 52 53 54 53 53 53 52 50 49 48 47 46 45 45 45 43 42 40 39 37 35 34 32 32 29 27 24 23 21 19 20 18 15 11 8 7 4 3 3 1 359 356 350 344 339
315 27 17 96 182 168 229 176 250 269 296 352 222 222 183 153 137 139 199 171 196 232 181 169 230 137 160 329 252 184 130 167 175 152 142 117 108 85 72 61 49 41 47 48 35 32 26 23 16 26 39 40 45 50 51 51 50 50 50 50 48 48 47 46 44 43 43 41 40 39 37 36 35 34 32 31 30 26 24 22 21 20 19 17 14 11 9 8 5 4 3 2 0 359 356 352 349
110 84 85 98 212 108 197 183 256 308 334 265 187 214 121 134 190 200 171 159 157 129 253 209 107 154 196 191 292 267 175 196 173 154 136 133 119 93 51 49 44 45 37 35 50 35 26 26 26 25 34 37 36 37 47 48 49 48 47 47 47 46 44 44 43 43 43 42 40 38 36 34 33 32 30 29 28 25 22 21 20 18 18 16 13 10 8 8 6 5 3 2 1 0 358 354 349
120 177 125 172 42 99 145 227 337 183 256 251 279 120 183 156 242 173 131 154 193 186 281 166 146 131 225 28 227 207 203 181 169 144 125 107 102 77 71 42 56 49 30 35 45 33 31 26 33 28 31 31 31 31 29 44 44 46 46 45 45 44 43 42 41 39 38 39 40 39 36 34 32 32 30 29 28 25 22 18 18 17 17 15 12 9 7 6 5 4 2 1 1 359 358 355 352
113 170 85 112 36 81 238 134 217 167 255 195 174 141 161 325 85 117 173 185 233 179 286 159 174 125 238 161 249 204 179 176 149 129 114 103 92 91 86 78 73 54 39 33 32 37 35 31 35 32 31 28 33 32 30 30 41 39 41 41 42 42 42 40 40 36 33 34 33 34 33 30 29 28 30 28 28 26 23 18 16 15 15 13 10 8 7 5 3 2 0 359 360 358 357 354 351
136 94 83 105 198 143 245 189 65 93 260 179 18 181 117 357 188 137 246 181 301 57 173 191 204 216 10 182 221 214 152 143 134 123 119 120 116 100 104 82 78 68 58 34 44 30 25 50 35 39 33 28 26 38 37 30 42 39 36 37 35 37 36 33 31 28 24 22 24 23 21 19 17 22 20 26 22 24 22 19 17 16 15 11 8 6 4 3 1 0 359 356 357 357 355 351 348
69 84 62 42 198 171 234 173 150 211 243 253 283 175 176 237 149 240 130 112 139 196 264 238 211 49 206 221 280 273 134 126 124 128 131 139 144 136 118 102 89 85 29 51 32 22 45 60 42 51 34 21 22 39 43 39 44 45 35 31 33 31 29 26 21 18 14 10 10 10 7 17 15 13 12 22 14 20 16 15 15 15 15 11 7 5 1 0 359 357 356 355 355 354 351 344 342
56 65 118 81 188 144 201 183 193 201 123 210 189 205 132 230 242 221 136 68 89 315 241 285 294 249 200 273 343 127 140 139 147 145 164 155 164 147 145 133 120 118 82 77 22 14 57 48 50 50 36 18 10 29 38 50 41 47 39 29 29 25 21 20 13 12 8 4 2 0 8 8 8 9 11 12 15 12 13 12 12 11 11 9 5 4 360 357 357 355 353 351 351 351 346 342 339
85 129 86 240 173 239 161 206 193 132 255 225 203 186 181 227 154 206 156 243 179 224 248 226 276 277 42 185 98 139 149 145 156 167 162 163 167 159 156 149 154 150 132 143 92 30 27 60 49 49 29 5 10 31 29 43 50 51 41 38 30 28 19 17 14 8 8 2 357 357 2 4 358 359 7 6 3 360 3 5 7 9 8 4 0 360 356 354 352 351 349 347 345 344 342 341 336
215 111 139 261 209 242 222 181 202 213 116 145 170 218 171 240 160 101 220 206 100 220 219 241 240 243 206 171 166 158 163 154 164 164 169 170 171 164 155 159 164 179 169 178 132 28 11 55 48 53 38 9 24 26 25 43 44 47 45 34 34 30 20 16 11 9 4 4 357 357 1 355 349 354 350 349 346 356 1 355 356 357 359 358 354 352 347 348 345 343 342 341 339 340 339 334 332
205 73 163 225 197 271 241 191 231 201 147 149 166 70 200 242 196 163 184 228 242 248 233 200 214 225 190 172 171 173 169 164 170 177 176 179 182 184 168 167 165 166 181 157 223 176 35 71 118 60 51 26 30 17 24 40 47 54 47 38 38 30 23 17 15 5 7 360 359 357 354 350 344 351 352 351 356 352 352 354 354 355 352 350 348 346 345 340 340 337 337 337 335 333 330 329 328
92 217 207 163 93 219 248 199 218 164 169 110 115 141 225 90 82 216 158 204 238 210 235 219 235 221 153 171 187 172 176 174 179 181 187 182 175 176 182 183 213 311 213 159 161 95 356 333 354 31 62 30 40 298 42 78 60 54 44 37 43 37 30 23 17 11 5 4 357 354 350 352 351 353 353 354 352 350 350 355 352 349 346 344 344 342 341 339 335 334 331 331 327 325 321 320 317
220 310 266 201 203 202 251 175 216 144 136 159 151 222 85 172 240 217 201 219 233 109 84 234 234 175 177 159 155 176 179 187 187 190 183 183 178 175 174 171 165 172 178 169 167 216 222 237 300 78 92 149 200 214 195 110 70 80 75 56 42 32 27 21 14 7 5 358 357 357 355 353 350 349 351 351 355 350 353 354 351 349 347 345 345 341 336 333 330 328 327 324 321 315 313 308 308
121 200 251 295 172 218 182 185 105 189 139 216 208 76 196 149 250 94 213 235 228 177 236 238 196 143 145 160 183 182 186 187 193 191 187 181 174 175 172 169 182 142 155 160 185 201 209 214 237 128 121 156 255 265 64 54 42 40 41 45 46 31 27 19 9 4 353 1 1 356 352 345 347 349 350 354 355 354 358 350 349 349 349 347 343 342 338 335 331 325 320 316 315 312 307 305 303
113 298 205 254 145 245 278 251 199 211 253 360 136 218 241 191 225 22 250 240 238 235 113 126 136 142 160 173 178 186 189 192 190 188 188 195 178 158 154 158 158 163 155 173 187 186 194 229 228 139 122 50 5 360 44 42 34 35 38 38 35 25 28 20 5 355 3 354 358 355 354 350 350 351 351 352 345 358 353 354 350 352 347 347 344 342 343 337 332 327 322 317 314 310 307 304 302
156 195 160 330 257 291 297 308 241 187 228 138 125 252 265 294 268 256 257 256 211 165 112 137 144 157 179 188 185 182 187 191 183 183 186 175 171 158 180 177 166 174 172 165 176 181 203 219 190 66 352 26 13 37 46 40 29 38 35 42 30 32 29 13 3 11 0 0 360 358 352 352 350 348 347 346 348 352 352 351 352 351 346 345 345 339 339 334 330 325 322 319 315 310 307 303 301
151 186 195 201 259 345 352 222 319 21 227 170 198 259 277 338 91 280 70 317 126 118 142 176 164 186 192 190 190 196 187 191 186 157 159 173 176 179 175 174 178 175 163 170 180 185 192 176 161 222 22 18 53 63 56 54 49 46 45 45 49 37 21 15 18 5 4 3 358 348 344 348 345 347 349 346 347 349 350 351 352 346 346 346 342 333 331 328 324 323 322 320 316 312 305 302 300
35 170 320 260 309 246 259 318 280 337 282 176 182 255 183 312 87 242 210 174 155 156 182 185 197 198 196 194 191 196 203 195 175 174 179 180 184 178 174 173 181 170 174 175 177 177 173 187 181 187 186 76 92 72 77 61 54 50 50 50 50 43 29 28 15 12 357 348 342 340 345 345 346 345 346 346 343 344 347 348 345 347 343 339 337 332 326 322 317 313 314 315 311 308 305 301 297
181 139 286 305 351 326 170 201 335 157 254 161 170 257 262 180 226 238 220 166 145 169 189 203 209 210 201 199 196 198 203 184 185 199 197 182 164 179 171 186 166 165 194 165 169 164 179 181 174 181 133 95 76 76 68 87 71 56 45 45 52 47 42 35 16 2 334 325 333 343 344 343 341 343 343 341 338 335 338 340 344 341 337 334 328 324 319 318 317 316 313 312 309 309 305 304 300
88 40 96 327 2 319 264 62 46 129 263 153 185 298 225 221 232 242 176 144 125 163 215 213 218 208 206 203 207 209 200 195 204 203 183 184 181 180 175 182 175 163 163 168 144 174 177 183 188 155 112 71 83 108 81 62 46 40 53 67 59 52 55 21 358 330 318 323 333 331 330 329 328 331 333 333 332 329 329 333 336 334 333 330 325 325 325 323 318 317 316 316 312 307 303 301 301
174 263 70 289 3 271 304 62 164 172 154 189 181 249 284 259 231 250 174 172 167 212 223 218 217 214 210 210 210 211 213 211 206 191 198 193 188 184 182 167 174 169 148 155 175 172 167 177 175 138 106 114 68 54 49 41 35 21 25 51 50 32 17 358 333 308 303 309 316 312 312 315 314 314 320 323 323 322 321 326 331 333 330 326 325 326 321 318 316 317 319 317 312 305 298 295 293
20 19 292 322 139 279 294 270 183 206 14 298 122 275 257 276 276 231 185 178 190 228 229 221 216 217 216 212 214 215 216 202 213 207 207 200 189 183 184 172 174 169 167 166 167 159 163 175 160 140 149 121 75 45 44 29 5 4 8 19 16 24 345 328 311 293 293 292 293 296 295 299 304 306 309 313 312 317 319 322 327 327 329 328 327 324 325 321 320 313 309 310 313 311 310 303 295
355 87 268 278 359 260 331 174 235 297 163 320 181 247 318 289 268 339 173 174 202 234 242 226 222 223 219 217 216 216 214 215 213 216 209 195 197 184 183 170 175 179 169 165 167 165 162 169 158 156 149 133 48 26 32 24 6 9 11 5 353 336 317 300 287 285 280 273 283 284 285 289 292 288 290 291 298 308 312 316 316 319 321 321 316 318 314 315 316 311 307 304 302 302 304 302 301
304 29 220 207 230 301 285 302 199 290 166 232 254 222 248 261 275 241 185 192 204 238 243 235 226 224 218 219 215 214 215 213 212 208 206 191 186 192 183 177 178 175 179 173 170 165 166 166 166 160 155 122 100 33 12 359 355 1 354 348 324 299 273 263 270 270 263 266 269 266 268 275 284 281 279 283 287 291 297 299 304 308 311 311 311 308 306 304 303 306 307 305 303 300 300 300 298
236 241 296 294 261 219 248 287 246 56 119 223 270 242 261 269 276 274 222 193 213 244 243 236 232 229 225 214 214 217 218 215 219 209 194 186 189 191 184 182 178 178 177 175 169 165 149 154 154 160 148 131 91 50 8 360 1 345 343 307 289 273 260 258 254 256 249 257 257 258 260 271 284 281 283 283 288 294 293 295 300 306 306 307 309 308 308 308 307 306 302 302 297 292 294 295 294
209 189 212 205 255 255 228 236 274 169 272 269 234 239 262 269 273 277 257 192 215 246 252 251 246 242 230 214 216 218 220 226 220 200 183 186 192 185 182 183 181 176 173 170 165 161 155 150 141 146 155 143 83 49 20 334 356 322 306 315 269 250 242 255 257 244 251 253 262 266 264 274 284 284 281 285 284 292 301 308 313 316 318 318 318 318 317 319 316 312 308 308 305 299 291 291 296
98 107 153 238 237 275 281 248 255 47 276 241 257 256 261 267 270 271 274 174 247 253 253 253 251 244 228 216 217 220 221 227 196 191 183 188 192 187 184 178 179 176 175 174 166 169 171 164 150 173 174 131 151 171 212 203 219 255 226 222 252 259 266 262 258 265 258 263 270 265 261 274 283 280 283 286 287 291 297 308 317 322 322 320 315 311 311 309 310 311 310 307 303 302 297 292 295
162 168 203 267 195 256 249 279 21 316 150 291 289 286 266 267 270 272 267 225 262 249 244 249 256 246 231 220 222 220 226 206 160 189 190 187 194 191 182 183 173 170 190 175 177 177 170 159 164 164 136 156 177 192 189 181 192 198 224 256 266 277 289 290 292 276 270 271 270 264 264 273 279 279 283 285 292 303 313 319 320 317 320 312 305 301 303 306 307 310 313 308 296 298 296 297 295
92 188 208 280 263 258 283 306 359 312 140 262 288 279 268 267 267 270 265 244 252 259 206 242 247 254 228 222 227 223 209 216 196 204 190 193 193 191 185 189 191 188 171 183 182 165 167 165 172 163 159 169 188 189 181 205 204 204 193 244 245 293 259 267 272 274 283 277 257 247 253 262 274 284 288 288 289 297 299 301 302 307 307 310 310 308 307 307 308 308 309 305 308 293 285 287 283
143 106 149 236 215 22 305 283 5 265 183 293 302 287 276 263 257 255 270 263 255 258 224 237 241 246 228 223 216 210 215 211 208 196 195 190 192 191 190 192 189 186 176 179 181 180 171 171 176 173 182 179 182 190 195 207 203 197 219 267 287 259 283 304 296 294 292 289 276 261 280 295 303 297 295 294 295 300 306 305 307 309 308 309 304 304 302 300 304 306 306 302 301 303 297 294 292
266 191 222 254 241 227 198 263 304 270 331 21 291 273 273 243 240 271 341 287 302 275 259 259 254 234 241 247 219 209 215 209 208 196 195 190 192 199 195 189 178 192 186 185 182 182 173 179 179 180 179 182 179 182 192 181 181 219 259 299 276 293 272 278 300 288 273 281 292 298 292 294 287 286 288 286 293 302 306 303 301 302 302 303 302 297 296 295 298 296 296 294 292 293 299 294 290
314 225 213 220 209 243 258 350 9 8 330 343 9 339 293 296 242 258 273 348 299 249 236 257 251 218 220 233 229 218 228 210 203 197 195 194 198 195 191 189 194 195 194 193 184 183 172 176 175 177 166 165 176 184 178 170 190 184 187 221 274 276 287 283 266 281 299 290 279 283 282 270 269 270 272 282 293 304 301 295 293 296 297 296 296 293 291 293 291 292 291 289 286 280 283 294 288
86 262 198 215 217 220 244 298 42 299 212 305 37 100 289 134 255 295 296 299 283 273 212 262 272 207 214 226 228 220 215 202 202 198 193 195 198 193 196 197 197 195 199 183 185 176 178 170 171 169 169 169 167 175 168 175 180 186 198 210 218 236 261 269 238 245 262 274 275 275 279 283 276 277 281 284 292 284 281 278 277 279 280 281 281 281 281 282 286 286 288 281 280 282 280 281 282
233 247 117 113 127 162 203 158 194 243 83 315 259 186 269 284 225 241 263 303 278 286 282 260 258 253 227 226 226 222 208 198 195 198 197 199 193 194 197 198 195 198 183 184 175 173 174 173 163 166 161 160 163 160 172 178 181 187 190 205 215 225 233 261 279 280 272 276 281 284 293 292 290 284 286 289 285 284 282 280 277 279 278 278 277 273 275 278 281 279 277 278 277 272 272 273 280
222 194 116 140 148 180 149 152 203 223 12 294 250 223 297 257 269 328 33 253 270 262 262 269 265 249 237 230 230 220 205 199 192 196 200 196 196 200 198 195 195 185 189 183 181 176 171 158 154 149 164 164 164 173 173 184 191 184 188 196 228 233 242 257 268 273 282 278 278 282 280 282 284 279 277 284 282 281 281 281 281 279 279 279 278 277 275 277 276 278 277 277 275 275 266 267 271
219 125 88 83 73 67 103 126 157 308 58 267 221 183 208 276 169 177 358 182 245 252 254 255 258 255 242 239 237 211 198 198 204 208 202 200 200 197 195 183 181 194 185 180 178 160 153 146 151 158 172 177 170 173 179 179 186 186 187 204 222 242 239 256 257 265 263 267 273 276 280 283 285 284 281 277 281 279 276 277 276 276 277 278 278 278 279 277 276 274 274 278 276 272 266 263 263
123 105 76 24 41 35 31 69 78 12 258 245 244 181 183 276 165 189 158 201 202 229 265 273 271 264 253 237 230 193 194 201 206 207 204 203 192 188 177 189 186 183 182 176 168 163 151 156 158 166 177 170 170 171 170 181 179 180 192 203 217 240 249 256 271 268 268 275 275 277 280 284 282 283 288 284 279 280 277 274 275 276 276 277 277 278 276 276 275 277 278 277 274 270 267 265 264
117 114 128 30 340 4 37 341 47 199 268 252 276 181 184 223 278 259 233 278 217 197 213 228 239 248 249 199 206 197 197 203 200 195 199 182 175 183 181 192 186 183 170 178 170 158 159 157 157 165 172 178 175 170 168 179 172 185 199 207 219 229 239 246 256 272 276 278 280 288 293 292 288 288 289 290 284 280 277 276 274 278 276 275 273 272 274 273 275 277 276 276 275 269 265 266 265
94 82 44 99 274 21 319 32 271 197 237 226 80 134 324 236 245 231 278 255 245 224 219 208 209 232 197 208 208 206 204 193 194 196 189 190 190 185 192 192 181 184 186 177 174 166 160 160 166 162 178 178 177 167 173 177 175 193 200 209 220 228 232 239 250 259 263 269 279 285 293 292 297 300 298 298 290 288 285 281 279 276 277 272 273 274 272 274 279 275 276 275 271 270 266 262 263
145 156 144 96 292 142 267 265 210 300 277 260 134 93 249 279 280 215 234 235 230 216 220 227 220 230 228 223 221 215 205 202 199 194 197 199 197 195 193 189 190 187 183 177 173 170 164 162 168 165 167 170 166 163 173 179 193 201 204 209 220 225 235 240 244 252 260 263 268 276 280 282 288 283 289 284 286 288 281 278 278 275 272 273 272 272 275 277 274 275 274 272 270 266 264 263 263
198 114 157 188 145 154 248 199 256 262 267 283 269 73 239 110 243 223 213 226 232 223 227 224 243 248 254 251 242 221 213 210 200 203 205 201 196 192 191 190 189 188 180 177 173 173 163 163 163 160 153 168 163 169 168 187 198 207 208 215 223 227 237 244 248 253 260 267 273 277 275 277 278 281 278 281 282 280 278 277 273 271 270 269 270 273 275 275 275 275 271 270 269 264 264 263 262
177 171 70 104 224 124 231 205 199 294 333 314 188 214 189 210 6 276 232 307 255 242 233 221 249 236 232 266 241 230 216 210 206 207 206 209 201 193 189 189 190 184 182 178 177 168 171 162 160 160 159 160 161 168 185 188 203 204 209 218 222 228 243 248 257 258 264 269 275 273 275 274 276 280 280 281 279 278 279 277 274 269 270 270 273 271 273 274 274 273 272 269 268 265 263 265 264
206 123 204 205 128 147 301 345 56 74 58 266 130 280 259 313 271 218 241 211 253 237 237 237 244 237 231 247 246 232 220 212 205 212 212 204 193 197 197 190 185 181 182 185 175 167 163 155 154 152 153 142 159 176 185 192 203 201 217 217 221 227 233 245 256 269 273 276 273 271 273 274 278 276 280 282 284 281 279 277 277 274 273 273 274 273 274 273 273 271 269 270 269 267 266 264 264
103 212 230 130 145 108 126 221 326 69 215 264 33 264 281 297 293 139 176 202 242 230 225 223 238 222 230 239 238 227 220 216 216 218 217 207 202 200 197 195 192 189 185 174 164 164 161 152 154 150 153 159 175 177 188 195 199 210 217 221 225 231 244 255 264 273 279 280 276 276 278 283 280 284 285 284 284 283 281 278 277 278 276 278 276 275 275 272 272 270 268 267 267 268 266 264 265
140 189 231 121 231 206 306 85 258 256 249 269 281 271 270 247 256 106 205 214 233 237 226 234 243 229 231 239 242 239 224 218 213 212 209 205 202 201 197 196 191 185 177 165 144 152 148 147 148 150 157 168 169 171 183 194 198 208 217 227 234 242 249 259 266 272 278 276 279 279 282 283 287 286 286 286 287 286 284 282 281 281 283 282 282 278 276 275 270 270 268 268 267 263 261 264 262
70 71 51 50 99 176 140 200 204 108 263 343 274 289 270 172 215 169 222 208 219 220 215 223 227 223 222 225 231 229 213 215 215 211 211 209 206 203 197 190 183 181 171 160 150 146 149 149 148 147 142 155 159 169 180 191 201 210 225 237 245 252 263 273 279 285 281 280 283 288 287 287 286 289 287 287 286 286 287 287 286 287 288 287 285 283 279 276 273 269 269 270 267 264 264 262 269
160 161 254 353 224 228 113 318 161 186 205 217 279 288 275 246 186 169 204 212 205 194 206 215 217 224 220 218 222 222 214 215 216 212 210 207 204 200 196 184 170 150 143 142 160 157 149 151 153 160 159 169 166 171 175 188 196 217 230 241 255 260 272 276 282 283 283 283 285 287 288 287 292 286 289 290 287 288 289 290 293 291 291 291 289 287 283 278 275 274 272 269 272 267 264 266 266
176 178 198 189 155 172 142 256 75 141 174 240 162 254 270 264 179 165 204 213 191 209 210 211 214 220 214 220 229 217 215 223 216 214 209 205 199 190 172 157 148 150 156 162 163 151 154 162 162 153 154 158 158 171 173 183 197 218 226 245 251 264 271 280 288 289 285 284 285 288 290 293 287 288 289 290 293 293 294 297 295 294 292 290 287 287 283 279 278 276 274 275 270 268 264 267 271